FW8060 Weather Reports


Display with metric or nautical units.
time (UTC)temp
F
wind
direction
speed
MPH
gust
MPH
rain 1hr
in
rain 24hr
in
rain mn
in
humidity
%
barometer
mb
20260502190319 62 117 2.0 7.0 0.01 0.20 0.20 87 1012.9
20260502185306 62 126 3.0 9.0 0.02 0.20 0.20 88 1012.9
20260502184305 63 126 2.0 9.0 0.04 0.20 0.20 88 1013.0
20260502183332 64 82 2.0 9.0 0.06 0.20 0.20 85 1013.2
20260502183305 63 113 4.0 9.0 0.06 0.20 0.20 87 1013.2
20260502181309 65 136 2.0 6.0 0.06 0.20 0.20 81 1013.1
20260502180305 65 261 4.0 8.0 0.06 0.19 0.19 79 1013.5
20260502170317 74 162 4.0 7.0 0.00 0.13 0.13 56 1013.0
20260502164317 75 175 3.0 8.0 0.00 0.13 0.13 53 1013.2
20260502163327 75 148 4.0 9.0 0.00 0.13 0.13 53 1013.2
20260502162308 76 116 4.0 9.0 0.00 0.13 0.13 53 1013.5
20260502161319 76 153 4.0 12.0 0.00 0.13 0.13 51 1013.6
20260502160614 76 141 3.0 7.0 0.00 0.13 0.13 53 1013.9
20260502160327 76 177 4.0 9.0 0.00 0.13 0.13 53 1013.6
20260502151305 77 143 4.0 11.0 0.00 0.13 0.13 54 1014.5
20260502150311 77 115 2.0 5.0 0.00 0.13 0.13 54 1014.6
20260502123301 73 179 1.0 7.0 0.00 0.13 0.13 60 1016.8
20260502122307 74 316 3.0 8.0 0.00 0.13 0.13 58 1017.0
20260502121300 74 184 3.0 8.0 0.00 0.13 0.13 60 1017.1
20260502120304 73 112 3.0 7.0 0.00 0.13 0.13 61 1017.1
20260502115310 73 213 4.0 10.0 0.00 0.13 0.13 60 1017.3
20260502114300 72 40 2.0 7.0 0.00 0.13 0.13 65 1017.3
20260502113257 71 192 4.0 8.0 0.00 0.13 0.13 63 1017.6
20260502112253 71 272 3.0 7.0 0.00 0.13 0.13 65 1017.6
20260502111251 70 143 2.0 6.0 0.00 0.13 0.13 67 1017.7
20260502110250 70 238 2.0 6.0 0.00 0.13 0.13 67 1017.8
20260502105253 69 263 3.0 7.0 0.00 0.13 0.13 67 1018.0
20260502104258 69 230 3.0 7.0 0.00 0.13 0.13 67 1018.0
20260502103256 68 275 2.0 6.0 0.00 0.13 0.13 70 1018.1
20260502102253 67 227 4.0 8.0 0.00 0.13 0.13 71 1018.2
20260502101249 67 250 3.0 8.0 0.00 0.13 0.13 73 1018.4
20260502100249 66 152 2.0 7.0 0.00 0.13 0.13 77 1018.5
20260502091250 64 201 3.0 7.0 0.00 0.13 0.13 84 1018.9
20260502090246 63 194 3.0 9.0 0.00 0.13 0.13 86 1018.9
20260502071231 60 244 4.0 9.0 0.00 0.13 0.13 91 1019.0
20260502070739 59 187 2.0 5.0 0.00 0.13 0.13 91 1018.6
20260502070313 60 242 3.0 9.0 0.00 0.13 0.13 91 1019.1
20260502065252 60 225 2.0 5.0 0.00 0.13 0.13 92 1018.9
20260502064122 58 131 1.0 3.0 0.00 0.13 0.13 92 1018.5
20260502063356 59 153 1.0 5.0 0.00 0.13 0.13 92 1018.4
20260502062851 57 131 2.0 5.0 0.00 0.13 0.13 92 1018.4
20260502062342 58 153 2.0 5.0 0.00 0.13 0.13 92 1018.5
20260502055233 57 131 2.0 4.0 0.00 0.13 0.13 93 1018.6
20260502054233 57 131 1.0 4.0 0.00 0.13 0.13 93 1018.4
20260502053235 57 131 2.0 5.0 0.00 0.13 0.13 92 1018.5
20260502052237 57 131 1.0 4.0 0.00 0.13 0.13 91 1018.4
20260502051232 57 268 1.0 3.0 0.00 0.13 0.13 91 1018.5
20260502050231 57 268 1.0 3.0 0.00 0.13 0.13 92 1018.3
20260502045231 57 268 0.0 1.0 0.00 0.13 0.13 92 1018.3
20260502044240 57 268 0.0 2.0 0.00 0.13 0.13 92 1018.3
20260502043233 57 268 0.0 0.0 0.00 0.13 0.13 93 1018.3
20260502042239 57 268 0.0 0.0 0.00 0.13 0.13 92 1018.3
20260502041234 57 268 0.0 0.0 0.00 0.13 0.13 92 1018.4
20260502040232 57 268 0.0 1.0 0.00 0.13 0.13 91 1018.4
20260502035235 57 268 0.0 2.0 0.00 0.13 0.13 91 1018.6
20260502035052 57 268 0.0 1.0 0.00 0.13 0.13 91 1018.6
20260502033231 57 268 0.0 1.0 0.03 0.13 0.13 91 1018.7
20260502033106 57 268 1.0 2.0 0.04 0.13 0.13 91 1019.0
20260502032419 57 268 1.0 3.0 0.04 0.13 0.13 91 1018.8
20260502030237 57 268 1.0 3.0 0.04 0.13 0.13 91 1019.0
20260502025234 57 268 1.0 3.0 0.04 0.13 0.13 90 1019.1
20260502024231 57 268 2.0 6.0 0.04 0.13 0.13 89 1019.2
20260502023231 57 256 3.0 8.0 0.01 0.09 0.09 88 1019.2
20260502022230 57 232 3.0 7.0 0.09 0.09 0.09 88 1019.4
20260502021236 58 226 2.0 7.0 0.09 0.09 0.09 89 1019.5
20260502020237 58 335 0.0 2.0 0.09 0.09 0.09 90 1019.0
20260502015238 58 335 0.0 0.0 0.09 0.09 0.09 88 1018.8
20260502014247 58 335 0.0 1.0 0.09 0.09 0.09 85 1018.9
20260502013236 59 335 1.0 3.0 0.09 0.09 0.09 81 1018.9
20260502012232 59 323 0.0 1.0 0.00 0.00 0.00 76 1019.0
20260502011232 59 323 0.0 2.0 0.00 0.00 0.00 75 1019.0
20260502010237 59 323 0.0 1.0 0.00 0.00 0.00 75 1019.2
20260502005232 59 323 0.0 2.0 0.00 0.00 0.00 75 1019.2
20260502004233 58 323 0.0 2.0 0.00 0.00 0.00 75 1019.1
20260502003257 59 323 1.0 3.0 0.00 0.00 0.00 73 1019.2
20260502003236 58 323 1.0 3.0 0.00 0.00 0.00 74 1019.0
20260502001231 59 323 1.0 3.0 0.00 0.00 0.00 72 1019.3
20260502001123 59 296 1.0 3.0 0.00 0.00 0.00 71 1019.4
20260501235231 60 274 0.0 4.0 0.00 0.00 0.00 68 1019.6
20260501234233 60 274 1.0 4.0 0.00 0.00 0.00 67 1019.7
20260501233238 60 298 2.0 7.0 0.00 0.00 0.00 65 1019.8
20260501232236 61 251 1.0 4.0 0.00 0.00 0.00 65 1019.8
20260501231238 60 269 1.0 3.0 0.00 0.00 0.00 66 1019.8
20260501230354 60 338 0.0 0.0 0.00 0.00 0.00 68 1019.9
20260501230247 61 269 2.0 9.0 0.00 0.00 0.00 65 1020.0
20260501224237 60 338 0.0 0.0 0.00 0.00 0.00 67 1019.8
20260501224107 60 338 0.0 0.0 0.00 0.00 0.00 67 1019.8
20260501222232 60 338 0.0 0.0 0.00 0.00 0.00 67 1020.0
20260501221233 60 338 0.0 0.0 0.00 0.00 0.00 68 1019.9
20260501220230 61 338 0.0 0.0 0.00 0.00 0.00 66 1020.1
20260501215236 61 338 0.0 0.0 0.00 0.00 0.00 65 1020.1
20260501214231 61 338 0.0 0.0 0.00 0.00 0.00 65 1020.2
20260501214113 62 338 0.0 1.0 0.00 0.00 0.00 63 1020.3
20260501212231 62 338 0.0 2.0 0.00 0.00 0.00 63 1020.4
20260501211237 62 338 0.0 0.0 0.00 0.00 0.00 62 1020.3
20260501210229 62 338 0.0 0.0 0.00 0.00 0.00 62 1020.3
20260501205227 62 338 0.0 0.0 0.00 0.00 0.00 62 1020.3
20260501204223 62 338 0.0 0.0 0.00 0.00 0.00 63 1020.3
20260501203222 63 338 0.0 0.0 0.00 0.00 0.00 62 1020.4
20260501202223 63 338 0.0 1.0 0.00 0.00 0.00 63 1020.4
20260501201220 63 338 0.0 1.0 0.00 0.00 0.00 61 1020.3
20260501200226 64 338 1.0 4.0 0.00 0.00 0.00 60 1020.4
20260501195233 65 321 1.0 5.0 0.00 0.00 0.00 58 1020.3
20260501194223 66 312 1.0 3.0 0.00 0.00 0.00 54 1020.3
20260501193220 69 330 1.0 6.0 0.00 0.00 0.00 47 1020.2
20260501192222 70 163 1.0 2.0 0.00 0.00 0.00 43 1020.0
20260501191218 71 163 1.0 4.0 0.00 0.00 0.00 43 1019.9